• In Lithuania
  • List of Countries
  • For 7 days
  • Water Temperature
  • Satellite Maps
  • Weather Map
  • Weather Widgets
  • user-avatar
    Login

    Hourly Weather Florence

    Today, 20 November, Monday

    Time Temperature Precipitation Wind Pressure Humidity
    00:00 +7°C° 0 mm 3 mps 761 mmHg 54%
    01:00 +5°C° 0 mm 3 mps 761 mmHg 54%
    02:00 +6°C° 0 mm 2 mps 762 mmHg 56%
    03:00 +5°C° 0 mm 2 mps 762 mmHg 58%
    04:00 +5°C° 0 mm 2 mps 762 mmHg 59%
    05:00 +4°C° 0 mm 2 mps 763 mmHg 60%
    06:00 +4°C° 0 mm 2 mps 763 mmHg 61%
    07:00 +4°C° 0 mm 2 mps 764 mmHg 61%
    08:00 +5°C° 0 mm 2 mps 765 mmHg 55%
    09:00 +7°C° 0 mm 2 mps 765 mmHg 49%
    10:00 +9°C° 0 mm 3 mps 765 mmHg 43%
    11:00 +12°C° 0 mm 2 mps 765 mmHg 39%
    12:00 +13°C° 0 mm 2 mps 765 mmHg 36%
    13:00 +14°C° 0 mm 2 mps 765 mmHg 32%
    14:00 +14°C° 0 mm 2 mps 764 mmHg 33%
    15:00 +14°C° 0 mm 1 mps 764 mmHg 34%
    16:00 +14°C° 0 mm 1 mps 764 mmHg 35%
    17:00 +13°C° 0 mm 1 mps 764 mmHg 39%
    18:00 +11°C° 0 mm 1 mps 764 mmHg 43%
    19:00 +9°C° 0 mm 1 mps 764 mmHg 47%
    20:00 +9°C° 0 mm 1 mps 764 mmHg 48%
    21:00 +9°C° 0 mm 1 mps 764 mmHg 49%
    22:00 +8°C° 0 mm 1 mps 764 mmHg 51%
    23:00 +8°C° 0 mm 1 mps 764 mmHg 52%

    Tomorrow, 21 November, Tuesday

    Time Temperature Precipitation Wind Pressure Humidity
    00:00 +8°C° 0 mm 1 mps 764 mmHg 53%
    01:00 +8°C° 0 mm 1 mps 764 mmHg 54%
    02:00 +8°C° 0 mm 1 mps 764 mmHg 55%
    03:00 +8°C° 0 mm 1 mps 764 mmHg 56%
    04:00 +7°C° 0 mm 1 mps 764 mmHg 57%
    05:00 +8°C° 0 mm 1 mps 764 mmHg 58%
    06:00 +8°C° 0 mm 1 mps 763 mmHg 59%
    07:00 +8°C° 0 mm 1 mps 763 mmHg 60%
    08:00 +10°C° 0 mm 1 mps 763 mmHg 59%
    09:00 +12°C° 0 mm 1 mps 763 mmHg 57%
    10:00 +13°C° 0 mm 1 mps 764 mmHg 56%
    11:00 +14°C° 0 mm 1 mps 763 mmHg 58%
    12:00 +14°C° 0 mm 1 mps 762 mmHg 60%
    13:00 +15°C° 0 mm 1 mps 762 mmHg 62%
    14:00 +15°C° 0 mm 2 mps 761 mmHg 65%
    15:00 +15°C° 0 mm 2 mps 761 mmHg 68%
    16:00 +14°C° 0 mm 2 mps 760 mmHg 71%
    17:00 +14°C° 0 mm 2 mps 760 mmHg 73%
    18:00 +14°C° 0 mm 2 mps 760 mmHg 75%
    19:00 +13°C° 0 mm 2 mps 760 mmHg 77%
    20:00 +13°C° 0 mm 1 mps 760 mmHg 78%
    21:00 +13°C° 0 mm 1 mps 759 mmHg 79%
    22:00 +13°C° 0 mm 1 mps 759 mmHg 80%
    23:00 +13°C° 0 mm 1 mps 759 mmHg 81%

    Day after tomorrow, 22 November, Wednesday

    Time Temperature Precipitation Wind Pressure Humidity
    00:00 +14°C° 0 mm 1 mps 758 mmHg 82%
    01:00 +14°C° 0 mm 2 mps 758 mmHg 83%
    02:00 +13°C° 0 mm 2 mps 758 mmHg 85%
    03:00 +13°C° 0 mm 2 mps 758 mmHg 88%
    04:00 +12°C° 0 mm 2 mps 758 mmHg 90%
    05:00 +12°C° 0 mm 2 mps 758 mmHg 90%
    06:00 +12°C° 0 mm 2 mps 758 mmHg 90%
    07:00 +12°C° 0 mm 2 mps 758 mmHg 90%
    08:00 +12°C° 0 mm 3 mps 759 mmHg 82%
    09:00 +14°C° 0 mm 3 mps 759 mmHg 74%
    10:00 +15°C° 0 mm 4 mps 759 mmHg 66%
    11:00 +17°C° 0 mm 4 mps 759 mmHg 60%
    12:00 +18°C° 0 mm 4 mps 759 mmHg 54%
    13:00 +19°C° 0 mm 4 mps 758 mmHg 49%
    14:00 +18°C° 0 mm 3 mps 758 mmHg 49%
    15:00 +18°C° 0 mm 3 mps 758 mmHg 50%
    16:00 +18°C° 0 mm 3 mps 758 mmHg 51%
    17:00 +16°C° 0 mm 3 mps 758 mmHg 55%
    18:00 +15°C° 0 mm 2 mps 759 mmHg 60%
    19:00 +13°C° 0 mm 2 mps 759 mmHg 64%
    20:00 +13°C° 0 mm 2 mps 759 mmHg 65%
    21:00 +12°C° 0 mm 2 mps 759 mmHg 66%
    22:00 +12°C° 0 mm 2 mps 760 mmHg 67%
    23:00 +11°C° 0 mm 3 mps 760 mmHg 68%

    23 November, Thursday

    Time Temperature Precipitation Wind Pressure Humidity
    00:00 +10°C° 0 mm 3 mps 760 mmHg 69%
    01:00 +10°C° 0 mm 4 mps 760 mmHg 69%
    02:00 +8°C° 0 mm 4 mps 760 mmHg 65%
    03:00 +8°C° 0 mm 4 mps 759 mmHg 61%
    04:00 +7°C° 0 mm 4 mps 759 mmHg 57%
    05:00 +7°C° 0 mm 4 mps 760 mmHg 55%
    06:00 +7°C° 0 mm 4 mps 760 mmHg 54%
    07:00 +6°C° 0 mm 4 mps 760 mmHg 52%
    08:00 +6°C° 0 mm 4 mps 760 mmHg 54%
    09:00 +6°C° 0 mm 4 mps 760 mmHg 57%
    10:00 +6°C° 0 mm 4 mps 760 mmHg 59%
    11:00 +6°C° 0.5 mm 4 mps 760 mmHg 64%
    12:00 +7°C° 0.5 mm 3 mps 759 mmHg 68%
    13:00 +7°C° 0.5 mm 3 mps 759 mmHg 72%
    14:00 +7°C° 0.3 mm 3 mps 758 mmHg 73%
    15:00 +7°C° 0.3 mm 3 mps 758 mmHg 74%
    16:00 +7°C° 0.3 mm 3 mps 758 mmHg 75%
    17:00 +7°C° 0 mm 3 mps 758 mmHg 77%
    18:00 +6°C° 0 mm 2 mps 758 mmHg 80%
    19:00 +5°C° 0 mm 2 mps 758 mmHg 82%
    20:00 +5°C° 0 mm 2 mps 758 mmHg 83%
    21:00 +5°C° 0 mm 2 mps 758 mmHg 83%
    22:00 +4°C° 0 mm 2 mps 758 mmHg 84%
    23:00 +4°C° 0 mm 2 mps 758 mmHg 83%

    24 November, Friday

    Time Temperature Precipitation Wind Pressure Humidity
    00:00 +4°C° 0 mm 2 mps 758 mmHg 83%
    01:00 +4°C° 0 mm 2 mps 758 mmHg 82%
    02:00 +4°C° 0 mm 2 mps 758 mmHg 81%
    03:00 +3°C° 0 mm 2 mps 758 mmHg 81%
    04:00 +3°C° 0 mm 2 mps 758 mmHg 80%
    05:00 +3°C° 0 mm 2 mps 758 mmHg 80%
    06:00 +3°C° 0 mm 2 mps 759 mmHg 79%
    07:00 +3°C° 0 mm 2 mps 759 mmHg 79%
    08:00 +5°C° 0 mm 2 mps 759 mmHg 72%
    09:00 +7°C° 0 mm 2 mps 760 mmHg 65%
    10:00 +9°C° 0 mm 2 mps 760 mmHg 59%
    11:00 +12°C° 0 mm 2 mps 760 mmHg 55%
    12:00 +13°C° 0 mm 2 mps 759 mmHg 51%
    13:00 +15°C° 0 mm 2 mps 759 mmHg 47%
    14:00 +15°C° 0 mm 1 mps 759 mmHg 48%
    15:00 +15°C° 0 mm 1 mps 759 mmHg 48%
    16:00 +15°C° 0 mm 1 mps 758 mmHg 49%
    17:00 +13°C° 0 mm 1 mps 759 mmHg 53%
    18:00 +12°C° 0 mm 1 mps 759 mmHg 58%
    19:00 +10°C° 0 mm 1 mps 759 mmHg 62%
    20:00 +10°C° 0 mm 1 mps 759 mmHg 64%
    21:00 +9°C° 0 mm 1 mps 759 mmHg 65%
    22:00 +9°C° 0 mm 1 mps 759 mmHg 67%
    23:00 +8°C° 0 mm 1 mps 759 mmHg 68%

    25 November, Saturday

    Time Temperature Precipitation Wind Pressure Humidity
    00:00 +8°C° 0 mm 1 mps 759 mmHg 70%
    01:00 +8°C° 0 mm 1 mps 759 mmHg 72%
    02:00 +8°C° 0 mm 1 mps 759 mmHg 73%
    03:00 +7°C° 0 mm 1 mps 758 mmHg 75%
    04:00 +7°C° 0 mm 1 mps 758 mmHg 76%
    05:00 +7°C° 0 mm 1 mps 758 mmHg 78%
    06:00 +6°C° 0 mm 2 mps 758 mmHg 80%
    07:00 +6°C° 0 mm 2 mps 758 mmHg 82%
    08:00 +8°C° 0 mm 2 mps 758 mmHg 74%
    09:00 +10°C° 0 mm 3 mps 758 mmHg 67%
    10:00 +12°C° 0 mm 3 mps 758 mmHg 60%
    11:00 +14°C° 0 mm 4 mps 757 mmHg 56%
    12:00 +15°C° 0 mm 4 mps 757 mmHg 52%
    13:00 +17°C° 0 mm 5 mps 756 mmHg 48%
    14:00 +18°C° 0 mm 4 mps 756 mmHg 52%
    15:00 +17°C° 0 mm 4 mps 755 mmHg 55%
    16:00 +17°C° 0 mm 3 mps 755 mmHg 58%
    17:00 +16°C° 0 mm 3 mps 755 mmHg 62%
    18:00 +14°C° 0 mm 3 mps 755 mmHg 65%
    19:00 +13°C° 0 mm 3 mps 755 mmHg 68%
    20:00 +12°C° 0 mm 3 mps 755 mmHg 70%
    21:00 +12°C° 0 mm 3 mps 755 mmHg 72%
    22:00 +12°C° 0 mm 3 mps 755 mmHg 74%
    23:00 +11°C° 0 mm 3 mps 755 mmHg 74%
    Show more